Location: Asheville, NC
(35.6000°N, 82.5500°W)
Time: 04:25:39
(UTC-05:00)

STARS - Pass Details

Date: 03 January 2018
Orbit: 625 x 641 km, 98.3° (Epoch: 17 January)

Event Time Altitude Azimuth Distance (km) Brightness Sun altitude
Exits shadow 18:38:30 - 11° (N) 2,952 ? -13.7°
Rises 18:38:35 0° 11° (N) 2,917 ? -13.7°
Reaches altitude 10° 18:40:47 10° 10° (N) 2,008 ? -14.1°
Maximum altitude 18:45:09 78° 284° (WNW) 648 ? -15.0°
Drops below altitude 10° 18:49:31 10° 199° (SSW) 2,004 ? -15.8°
Sets 18:51:42 0° 197° (SSW) 2,910 ? -16.3°
